Tacoma Narrows, WA

2:11 PM PDT on June 28, 2017 (GMT -0700)
Tacoma Narrows

Weather History for KTIW - May, 2013

Change the Weather History Date:

Monday, May 13, 2013

  Actual Average Record
Temperature  
Mean Temperature 56 °F -  
Max Temperature 64 °F 60 °F 84 °F (2016)
Min Temperature 48 °F 45 °F 39 °F (1999)
Degree Days  
Heating Degree Days 9    
Growing Degree Days 6 (Base 50)    
Moisture  
Dew Point 51 °F    
Average Humidity 86    
Maximum Humidity 100    
Minimum Humidity 61    
Precipitation  
Precipitation 0.24 in - - ()
Sea Level Pressure  
Sea Level Pressure 30.04 in    
Wind  
Wind Speed 6 mph (SSW)    
Max Wind Speed 18 mph    
Max Gust Speed 39 mph    
Visibility 9 miles    
Events Fog , Rain    
Averages and records for this station are not official NWS values.
T = Trace of Precipitation, MM = Missing Value Source: NWS Daily Summary

Daily Weather History Graph

Daily Weather History Graph

Search for Another Location

Airport or City:

Trip Planner

Search our weather history database for the weather conditions in past years. The results will help you decide how hot, cold, wet, or windy it might be!

Date:

Astronomy

May. 13, 2013 Rise Set
Actual Time 5:36 AM PDT 8:37 PM PDT
Civil Twilight 5:00 AM PDT 9:14 PM PDT
Nautical Twilight 4:13 AM PDT 10:00 PM PDT
Astronomical Twilight 3:17 AM PDT 10:58 PM PDT
Moon 8:25 AM PDT (5/13) 11:50 PM PDT (5/13)
Length of Visible Light 16h 14m
Length of Day
15h 01m
Waxing Crescent, 13% of the Moon is Illuminated
May 13
Waxing Crescent
May 17
First Quarter
May 24
Full
May 31
Last Quarter
Jun 8
New

Hourly Weather History & Observations

Time (PDT) Temp. Dew Point Humidity Pressure Visibility Wind Dir Wind Speed Gust Speed Precip Events Conditions
12:33 AM 55.4 °F 51.8 °F 88% 30.06 in 10.0 mi SW 5.8 mph - 0.00 in   Overcast
12:53 AM 55.9 °F 52.0 °F 87% 30.07 in 10.0 mi SSW 6.9 mph - 0.00 in   Overcast
1:53 AM 54.0 °F 52.0 °F 93% 30.06 in 9.0 mi South 4.6 mph - 0.03 in   Mostly Cloudy
2:18 AM 55.4 °F 51.8 °F 88% 30.06 in 10.0 mi Calm Calm - N/A   Mostly Cloudy
2:53 AM 55.0 °F 52.0 °F 89% 30.05 in 10.0 mi Calm Calm - N/A   Overcast
3:06 AM 53.6 °F 53.6 °F 100% 30.05 in 10.0 mi SSE 3.5 mph - N/A   Overcast
3:13 AM 53.6 °F 53.6 °F 100% 30.05 in 10.0 mi South 3.5 mph - N/A   Overcast
3:24 AM 53.6 °F 51.8 °F 94% 30.06 in 10.0 mi South 3.5 mph - N/A   Overcast
3:40 AM 55.4 °F 53.6 °F 94% 30.05 in 10.0 mi Calm Calm - N/A   Overcast
3:53 AM 55.0 °F 52.0 °F 89% 30.04 in 10.0 mi Calm Calm - N/A   Overcast
4:19 AM 55.4 °F 53.6 °F 94% 30.03 in 10.0 mi South 4.6 mph - N/A   Overcast
4:53 AM 55.0 °F 53.1 °F 93% 30.04 in 10.0 mi SSW 3.5 mph - N/A   Overcast
5:21 AM 55.4 °F 53.6 °F 94% 30.03 in 10.0 mi SW 4.6 mph - N/A   Overcast
5:53 AM 55.0 °F 53.1 °F 93% 30.03 in 8.0 mi SW 4.6 mph - N/A   Overcast
6:04 AM 55.4 °F 51.8 °F 88% 30.04 in 6.0 mi SW 5.8 mph - 0.00 in Rain Light Rain
6:15 AM 55.4 °F 53.6 °F 94% 30.03 in 5.0 mi WSW 3.5 mph - 0.00 in Rain Light Rain
6:37 AM 55.4 °F 51.8 °F 88% 30.03 in 6.0 mi SSW 3.5 mph - 0.00 in   Overcast
6:53 AM 55.0 °F 53.1 °F 93% 30.02 in 4.0 mi SSE 3.5 mph - 0.01 in Rain Light Rain
7:03 AM 53.6 °F 53.6 °F 100% 30.03 in 1.2 mi South 4.6 mph - 0.00 in   Mostly Cloudy
7:08 AM 53.6 °F 53.6 °F 100% 30.03 in 0.2 mi South 4.6 mph - 0.00 in Fog Fog
7:19 AM 55.4 °F 53.6 °F 94% 30.02 in 1.0 mi SSE 4.6 mph - 0.00 in   Overcast
7:22 AM 55.4 °F 53.6 °F 94% 30.02 in 2.5 mi SSE 3.5 mph - 0.00 in   Overcast
7:29 AM 55.4 °F 53.6 °F 94% 30.03 in 8.0 mi South 4.6 mph - 0.00 in   Overcast
7:38 AM 55.4 °F 53.6 °F 94% 30.03 in 10.0 mi SW 4.6 mph - 0.00 in   Overcast
7:45 AM 55.4 °F 53.6 °F 94% 30.03 in 10.0 mi SW 4.6 mph - 0.00 in   Overcast
7:53 AM 55.0 °F 53.1 °F 93% 30.03 in 10.0 mi SW 3.5 mph - 0.00 in   Overcast
8:17 AM 55.4 °F 53.6 °F 94% 30.03 in 10.0 mi South 4.6 mph - N/A   Overcast
8:24 AM 55.4 °F 53.6 °F 94% 30.02 in 10.0 mi WSW 4.6 mph - N/A   Overcast
8:32 AM 55.4 °F 53.6 °F 94% 30.02 in 10.0 mi SW 3.5 mph - N/A   Overcast
8:53 AM 57.0 °F 54.0 °F 89% 30.02 in 10.0 mi WSW 4.6 mph - N/A   Overcast
9:00 AM 57.2 °F 53.6 °F 88% 30.02 in 10.0 mi West 4.6 mph - N/A   Overcast
9:15 AM 57.2 °F 53.6 °F 88% 30.02 in 10.0 mi SW 5.8 mph - N/A   Mostly Cloudy
9:31 AM 57.2 °F 53.6 °F 88% 30.01 in 7.0 mi WSW 3.5 mph - 0.00 in Rain Light Rain
9:38 AM 57.2 °F 53.6 °F 88% 30.01 in 10.0 mi SSW 4.6 mph - 0.00 in Rain Light Rain
9:53 AM 57.0 °F 54.0 °F 89% 30.01 in 9.0 mi Variable 5.8 mph - 0.01 in Rain Light Rain
10:12 AM 59.0 °F 55.4 °F 88% 30.01 in 10.0 mi SSW 5.8 mph - 0.00 in   Mostly Cloudy
10:20 AM 60.8 °F 55.4 °F 82% 30.00 in 10.0 mi SSW 6.9 mph - 0.00 in   Mostly Cloudy
10:53 AM 62.1 °F 55.0 °F 78% 29.99 in 10.0 mi SSW 12.7 mph 21.9 mph 0.00 in   Mostly Cloudy
11:53 AM 64.9 °F 52.0 °F 63% 29.96 in 10.0 mi South 16.1 mph 26.5 mph N/A   Mostly Cloudy
12:53 PM 62.6 °F 50.0 °F 63% 29.96 in 8.0 mi SSW 10.4 mph 23.0 mph N/A Rain Light Rain
1:24 PM 55.4 °F 51.8 °F 88% 29.99 in 3.0 mi SW 10.4 mph 19.6 mph 0.14 in Rain Light Rain
1:42 PM 57.2 °F 51.8 °F 82% 30.00 in 9.0 mi SW 9.2 mph 18.4 mph 0.15 in Rain Light Rain
1:53 PM 57.0 °F 52.0 °F 83% 30.00 in 8.0 mi SSW 11.5 mph 20.7 mph 0.15 in Rain Light Rain
2:00 PM 57.2 °F 51.8 °F 82% 30.00 in 10.0 mi SSW 12.7 mph 21.9 mph 0.01 in Rain Light Rain
2:02 PM 57.2 °F 51.8 °F 82% 30.00 in 10.0 mi SSW 12.7 mph 21.9 mph 0.01 in Rain Light Rain
2:53 PM 55.9 °F 50.0 °F 80% 30.02 in 6.0 mi SW 17.3 mph 28.8 mph 0.02 in Rain Light Rain
3:53 PM 59.0 °F 48.9 °F 69% 30.04 in 10.0 mi SSW 15.0 mph 24.2 mph 0.01 in   Overcast
4:53 PM 53.6 °F 44.6 °F 72% 30.08 in 10.0 mi SW 18.4 mph 39.1 mph N/A Rain Light Rain
5:53 PM 54.0 °F 45.0 °F 72% 30.11 in 10.0 mi SSW 10.4 mph 18.4 mph 0.01 in   Scattered Clouds
6:53 PM 55.0 °F 44.1 °F 67% 30.14 in 10.0 mi SSW 8.1 mph 19.6 mph N/A   Scattered Clouds
7:53 PM 53.1 °F 39.9 °F 61% 30.17 in 10.0 mi SW 12.7 mph 20.7 mph N/A   Mostly Cloudy
8:53 PM 51.1 °F 39.9 °F 66% 30.18 in 10.0 mi SSW 10.4 mph 19.6 mph N/A   Clear
9:53 PM 50.0 °F 41.0 °F 71% 30.21 in 10.0 mi SSW 6.9 mph - N/A   Clear
10:53 PM 48.9 °F 41.0 °F 74% 30.22 in 10.0 mi SSW 9.2 mph - N/A   Clear
11:53 PM 48.9 °F 41.0 °F 74% 30.20 in 10.0 mi SSW 8.1 mph - N/A   Clear